Regional Weather Roundup
Issued by NWS

Home | Current Version | Previous Version | Text Only | Print | Product List | Glossary Off
Versions: 1 2 3 4 5 6 7 8 9 10 11 12 13 14 15 16 17 18 19 20 21 22 23 24 25 26 27 28 29 30 31 32 33 34 35 36 37 38 39 40 41 42 43 44 45 46 47 48 49 50

000
ASUS43 KMPX 181010
RWRMN
WEATHER ROUNDUP FOR MINNESOTA
NATIONAL WEATHER SERVICE TWIN CITIES/CHANHASSEN MN
500 AM CDT THU SEP 18 2014


NOTE: "FAIR" INDICATES FEW OR NO CLOUDS BELOW 12,000 FEET WITH NO
SIGNIFICANT WEATHER AND/OR OBSTRUCTIONS TO VISIBILITY. N/A MEANS
CURRENT SKY AND/OR WEATHER CONDITIONS ARE NOT AVAILABLE.

MNZ060>063-068>070-181100-
   Twin Cities Metro

CITY           SKY/WX    TMP DP  RH WIND       PRES   REMARKS
TWIN CITIES    CLEAR     50  46  86 NE7       30.06S
ST PAUL        CLEAR     49  46  90 CALM      30.08R
CRYSTAL        CLEAR     48  44  86 NE3       30.06S
BLAINE         CLEAR     46  46 100 NE3       30.07S
LAKEVILLE        N/A     46  46 100 CALM      30.05S FOG
EDEN PRAIRIE     N/A    N/A N/A N/A MISG      30.04S
SOUTH ST PAUL  CLEAR     50  47  89 NE3       30.07R
LAKE ELMO      FAIR      46  45  93 NE3       30.08R
$$
MNZ001>005-007-008-013>017-022>024-027-028-181100-
   Northwest Minnesota

CITY           SKY/WX    TMP DP  RH WIND       PRES   REMARKS
BEMIDJI        CLOUDY    45  44  95 SE13      30.07S
HALLOCK        CLEAR     39  37  93 E3        30.02F
ROSEAU         CLOUDY    37  34  87 SE5       30.05F HAZE
WARROAD        CLOUDY    39  36  87 SE3       30.07S
THIEF RVR FALL CLOUDY    45  45 100 E8        30.03F VSB 1/2
CROOKSTON      CLEAR     43  41  93 E5        30.03S
FOSSTON        CLOUDY    48  45  87 SE8       30.04S FOG
DETROIT LAKES  CLOUDY    48  46  93 SE9       30.05S FOG
MOORHEAD       CLEAR     45  45 100 CALM      30.01S
PARK RAPIDS    CLOUDY    45  44  97 E7        30.07S
MAHNOMEN       CLOUDY    47  47  97 SE12      30.02S
$$
MNZ006-009>011-018-025>026-181100-
   North Central Minnesota

CITY           SKY/WX    TMP DP  RH WIND       PRES   REMARKS
BAUDETTE       CLOUDY    41  39  93 SE6       30.08F
FLAG ISLAND    PTCLDY    46  43  87 SE16      30.05F
INTL FALLS     CLOUDY    41  40  96 SE7       30.11S
WASKISH        CLOUDY    45  43  93 CALM      30.08S
BIG FORK       CLOUDY    43  41  93 SE3       30.11S
LONGVILLE      MOCLDY    41  39  93 SE7       30.10S
GRAND RAPIDS   CLOUDY    43  37  81 SE9       30.11S
CRANE LAKE     CLOUDY    39  37  93 CALM      30.15S
ORR            CLOUDY    41  37  87 SE5       30.10F
COOK           CLOUDY    43  39  87 SE6       30.13S
WALKER         CLOUDY    43  40  89 S8        30.09S
$$
MNZ012-019>021-037-181100-
   Northeast Minnesota

CITY           SKY/WX    TMP DP  RH WIND       PRES   REMARKS
DULUTH         CLOUDY    44  37  76 E13       30.13S
ELY            CLOUDY    39  36  87 SE7       30.14F
HIBBING        CLOUDY    44  39  82 SE8       30.13S
EVELETH        CLOUDY    43  37  81 SE6       30.14S
DULUTH HARBOR  MOCLDY    46  41  81 E15       30.16S
TWO HARBORS    CLOUDY    43  36  75 E7        30.14R
SILVER BAY     PTCLDY    41  37  87 E3        30.14S
GRAND MARAIS     N/A     45  33  63 E7        30.19R
G MARAIS ARPRT CLOUDY    37  32  81 CALM      30.17R
$$
MNZ029>031-032-039>041-046>048-054>057-064-181100-
   West Central Minnesota

CITY           SKY/WX    TMP DP  RH WIND       PRES   REMARKS
FERGUS FALLS   MOCLDY    52  50  93 E8        30.03R
WHEATON        PTCLDY    43  43 100 SE5       30.03S
MORRIS         FOG       52  50  93 E10       30.01S VSB 3/4
ALEXANDRIA     FOG       48  47  96 E10       30.06S VSB 1/2
ELBOW LAKE     CLOUDY    51  50  98 E14       30.02S FOG
WADENA         FOG       46  45  93 E9        30.06S VSB 3/4
GLENWOOD       MIX PCPN  48  46  93 E10       30.05S VSB 1/4
APPLETON       CLEAR     54  50  87 E7        30.01R FOG
BENSON         CLOUDY    52  50  93 SE9       30.02S FOG
ORTONVILLE     CLEAR     52  48  87 E7        30.00S
MADISON        FOG       48  46  93 E3        30.01R VSB 3/4
WILLMAR        CLOUDY    52  50  93 E8        30.05R FOG
$$
MNZ033>034-036-042>043-049>051-058-059-181100-
   Central Minnesota

CITY           SKY/WX    TMP DP  RH WIND       PRES   REMARKS
ST CLOUD       CLOUDY    49  44  83 E5        30.08S
SAUK CENTRE    FOG       47  47 100 E8        30.06S VSB 1/2
PAYNESVILLE    CLOUDY    46  46 100 NE8       30.06S
AITKIN         CLEAR     41  36  81 NE5       30.10S
PINE RIVER     CLOUDY    45  43  93 E8        30.12S
BRAINERD       CLOUDY    45  41  86 E9        30.10R
STAPLES        CLOUDY    46  45  93 E6        30.08S FOG
LONG PRAIRIE   FOG       45  45 100 E8        30.07S VSB 1/2
LITTLE FALLS   CLOUDY    46  43  87 E5        30.08S
LITCHFIELD     CLOUDY    50  50 100 E7        30.06S
BUFFALO        CLOUDY    47  44  90 NE7       30.08R
MAPLE LAKE     CLOUDY    47  46  96 NE7       30.08R
$$
MNZ037-044-045-052-053-181100-
   East Central Minnesota

CITY           SKY/WX    TMP DP  RH WIND       PRES   REMARKS
PRINCETON      CLOUDY    46  45  93 NE8       30.09S
MORA           CLOUDY    41  37  87 E5        30.12S
CAMBRIDGE      CLOUDY    48  41  76 NE3       30.07S
RUSH CITY      CLOUDY    44  42  91 NE3       30.10S
MOOSE LAKE     CLEAR     39  36  87 NE5       30.11S
HINCKLEY       FAIR      39  37  93 CALM      30.11S
CLOQUET        CLOUDY    41  36  81 E7        30.13S
MCGREGOR       CLEAR     37  36  93 E5        30.13R
$$
MNZ071>073-080-081-089-090-097-098-181100-
   Southwest Minnesota

CITY           SKY/WX    TMP DP  RH WIND       PRES   REMARKS
MONTEVIDEO     CLEAR     52  52 100 SE6       30.02S FOG
GRANITE FALLS  CLEAR     51  50  96 E3        30.03R
CANBY          CLEAR     48  47  97 CALM      30.01S
MARSHALL       MOCLDY    48  45  87 CALM      29.99S
REDWOOD FALLS  CLEAR     52  51  97 E6        30.02R
OLIVIA         MOCLDY    52  50  93 E8        30.02R FOG
PIPESTONE      PTCLDY    54  52  94 SE5       30.00S
WINDOM         CLEAR     50  48  93 CALM      30.02R FOG
WORTHINGTON    MOCLDY    48  46  93 CALM      30.02S
JACKSON        CLEAR     50  46  87 CALM      30.02S
TRACY          MOCLDY    57  54  89 SW7       30.00S
SLAYTON        CLEAR     49  48  98 CALM      30.02S
$$
MNZ065>067-074>077-082>085-091>093-181100-
   South Central Minnesota

CITY           SKY/WX    TMP DP  RH WIND       PRES   REMARKS
MANKATO        CLEAR     54  46  76 NE5       30.03R
NEW ULM        CLEAR     52  52 100 NE6       30.02S
ST JAMES       CLEAR     52  48  87 SE3       30.02S
FAIRMONT       CLEAR     52  45  76 SE5       30.02R
GLENCOE        CLOUDY    53  50  89 NE3       30.04S
FARIBAULT      HAZE      54  48  82 N3        30.05S VSB 1/4
OWATONNA       CLEAR     48  46  93 CALM      30.04S
WASECA         CLEAR     50  45  81 E3        30.05S
ALBERT LEA     CLEAR     46  46 100 CALM      30.04R
$$
MNZ078>079-086>088-094>096-181100-
   Southeast Minnesota

CITY           SKY/WX    TMP DP  RH WIND       PRES   REMARKS
ROCHESTER      CLEAR     48  46  93 S5        30.06R
RED WING       CLEAR     52  48  87 E6        30.05S
STANTON        FOG       48  46  93 CALM      30.04R VSB 1/4
DODGE CENTER   PTCLDY    48  46  93 NE3       30.05R
WINONA         FOG       54  54 100 CALM      30.07R VSB 1/2
AUSTIN         CLEAR     48  46  93 CALM      30.05R
PRESTON        CLEAR     49  49 100 CALM      30.06S
$$
ABBREVIATIONS USED IN REMARKS
   TC - TEMPERATURES IN CELSIUS
  WCI - WIND CHILL INDEX
   HX - HEAT INDEX
  VSB - VISIBILITY
$$



USA.gov is the U.S. government's official web portal to all federal, state and local government web resources and services.